Temp
63 63 64 64 63 64 64 64 64 64 64 64 64 64 64 64 64 63 62 67 66 71 68 66 66 65 64 60 59 53 48 44 48 49 52 57 56 56 54 56 51 53 52 54 58
63 63 63 63 63 63 63 63 63 63 63 63 64 64 64 63 61 62 69 71 71 71 65 63 60 63 59 57 57 51 45 50 54 52 52 56 55 59 56 52 48 48 52 54 55
62 62 62 62 63 63 63 63 63 63 63 63 63 63 63 60 60 62 70 72 72 70 65 64 63 61 55 55 52 49 49 53 54 55 57 57 53 55 55 50 55 55 54 54 52
61 61 62 62 62 63 63 63 63 63 63 63 63 63 62 58 50 63 70 71 71 65 65 63 61 55 52 51 55 49 52 55 56 56 56 56 57 55 55 55 54 57 55 52 52
61 61 61 61 62 62 62 62 62 62 62 63 63 63 61 56 60 66 68 68 66 65 62 61 57 55 51 53 54 50 52 55 55 55 53 56 53 54 55 50 51 54 54 52 51
62 61 60 60 61 62 62 62 62 62 62 63 63 63 57 52 65 66 65 64 65 63 61 61 59 58 56 52 52 53 54 54 55 54 54 55 51 52 52 49 50 52 51 50 50
61 61 61 60 61 61 61 61 62 62 62 63 63 61 54 60 64 64 65 63 63 63 60 61 61 58 56 52 55 53 50 52 53 54 53 54 51 53 52 50 50 50 48 49 49
61 60 60 60 60 60 61 61 61 61 62 63 63 56 54 63 61 64 64 62 64 65 63 62 62 60 56 55 54 48 46 43 50 52 51 53 45 54 51 49 49 47 46 47 49
60 60 60 60 60 60 60 60 60 61 62 63 56 52 54 65 59 63 62 61 61 62 63 68 61 53 53 47 43 43 39 39 48 52 49 48 45 50 47 48 48 46 45 46 46
60 60 60 60 60 60 60 61 60 59 61 62 62 51 55 55 58 61 60 63 58 57 58 57 50 46 44 44 38 39 37 40 41 48 46 44 46 51 47 47 50 46 45 45 46
60 60 60 60 60 60 57 54 54 52 51 55 53 53 55 57 60 58 60 60 57 55 48 48 45 42 46 47 45 44 40 41 44 49 47 46 47 52 50 45 45 46 46 47 48
60 59 60 60 60 60 54 51 53 54 49 55 54 56 58 58 52 56 61 55 51 46 47 45 42 50 50 47 46 42 40 40 45 48 47 45 45 49 47 48 51 51 51 50 50
58 59 59 60 60 57 52 53 57 55 46 51 54 53 56 58 54 54 59 53 48 45 45 43 48 50 50 45 44 42 41 40 43 43 42 40 40 45 52 49 51 52 56 55 53
58 58 58 58 55 54 51 58 58 55 39 44 49 53 55 57 51 58 59 54 47 46 44 44 49 48 45 44 47 40 46 46 43 40 35 40 33 41 45 49 49 55 52 54 53
57 57 58 59 55 52 58 58 58 58 29 47 48 58 52 54 51 49 54 52 46 47 47 45 45 45 43 45 48 44 46 44 41 36 34 35 33 38 41 44 51 55 55 55 51
56 56 57 56 56 57 59 58 55 38 27 42 47 46 47 48 46 49 50 53 51 47 44 45 47 48 48 47 49 48 44 41 36 35 28 40 37 36 42 48 50 56 58 52 48
56 56 54 58 52 58 58 51 34 29 44 41 41 46 45 42 43 44 44 44 44 39 40 41 44 45 49 45 45 45 42 30 28 25 30 34 32 47 47 50 53 57 54 47 45
55 55 53 56 58 57 52 42 29 35 37 44 42 42 41 44 42 42 41 41 46 41 38 39 37 45 48 49 45 43 42 31 24 23 28 32 30 39 46 52 50 49 49 44 41
55 48 51 53 57 56 46 35 36 37 43 44 44 40 38 41 42 39 37 41 46 46 44 37 38 43 45 48 53 41 37 45 36 18 23 33 37 44 46 46 46 48 45 42 43
46 44 45 54 56 53 43 38 41 46 47 48 41 42 36 37 40 38 36 42 43 49 48 46 36 39 41 47 43 44 47 36 32 22 18 29 31 38 43 45 50 49 49 41 41
45 40 47 54 55 46 37 39 43 46 49 46 44 41 39 39 40 35 40 41 44 44 52 46 41 33 38 38 39 38 37 37 37 31 26 21 34 41 49 48 49 50 47 45 41
41 35 47 54 40 41 37 44 47 47 50 48 47 47 41 41 38 38 38 43 48 48 44 47 42 30 35 38 39 39 38 38 30 28 28 27 39 44 47 48 47 49 49 42 41
35 39 47 49 34 35 41 42 45 45 46 46 44 47 47 43 39 40 40 46 49 49 44 47 38 25 31 34 36 34 38 43 37 30 31 27 39 41 39 42 46 48 44 42 40
34 29 37 41 44 39 37 38 39 46 47 48 46 47 45 44 47 39 40 44 47 49 48 50 41 35 35 35 38 33 36 40 43 34 36 38 44 41 44 43 46 47 45 41 39
36 30 36 29 34 37 40 40 37 37 45 47 44 43 43 39 40 40 42 41 44 46 47 47 34 37 42 42 39 36 36 39 39 43 37 44 44 51 51 47 50 49 45 41 39
33 29 34 32 34 35 37 36 34 36 41 41 39 43 45 40 41 39 43 43 43 42 43 44 34 38 36 41 38 36 37 40 41 44 44 45 45 51 49 46 44 48 46 43 41
38 39 36 34 32 31 34 36 36 40 42 42 41 40 42 44 48 50 49 49 48 46 39 39 36 34 32 37 37 31 38 41 40 45 45 38 48 49 52 51 53 50 44 44 45
MSLP
1018.97 1019.16 1019.08 1018.94 1018.89 1018.85 1018.65 1018.53 1018.46 1018.26 1017.90 1017.32 1017.47 1016.95 1016.55 1016.10 1015.60 1015.34 1015.09 1014.95 1014.79 1014.71 1014.62 1014.29 1014.07 1014.16 1014.31 1015.08 1015.59 1016.32 1017.56 1018.58 1018.25 1018.11 1016.96 1016.71 1017.01 1017.42 1017.76 1018.43 1019.17 1019.46 1019.69 1019.74 1019.96
1019.03 1019.10 1019.20 1019.06 1018.88 1018.65 1018.63 1018.65 1018.52 1018.23 1017.78 1017.70 1017.35 1016.87 1016.57 1016.21 1016.04 1015.15 1014.77 1014.66 1014.68 1014.74 1014.64 1014.48 1014.49 1014.45 1015.01 1015.44 1016.04 1016.66 1017.74 1017.60 1017.11 1017.03 1016.72 1016.66 1016.88 1017.29 1017.94 1018.77 1019.42 1019.75 1019.89 1020.12 1020.36
1019.15 1019.11 1019.15 1019.07 1019.00 1018.94 1018.75 1018.63 1018.46 1018.27 1018.05 1017.59 1017.18 1016.68 1016.40 1016.39 1016.08 1015.04 1014.71 1014.66 1014.74 1014.73 1014.79 1014.64 1014.54 1014.67 1015.29 1015.62 1016.16 1016.67 1017.00 1016.88 1016.64 1016.54 1016.48 1016.64 1017.00 1017.33 1017.91 1018.93 1018.85 1019.38 1020.02 1020.54 1020.88
1019.24 1019.29 1019.23 1019.16 1019.00 1018.98 1018.76 1018.70 1018.49 1018.28 1017.84 1017.50 1017.03 1016.58 1016.25 1016.47 1015.98 1014.93 1014.73 1014.73 1014.82 1014.76 1014.80 1014.65 1014.69 1015.07 1015.56 1015.92 1016.19 1016.55 1016.59 1016.58 1016.44 1016.45 1016.50 1016.64 1016.92 1017.46 1018.02 1017.97 1018.29 1018.71 1019.47 1020.38 1020.98
1019.12 1019.20 1019.22 1019.18 1019.06 1018.82 1018.68 1018.60 1018.42 1018.15 1017.90 1017.52 1017.17 1016.58 1016.10 1016.22 1015.37 1014.83 1014.78 1014.81 1014.79 1014.81 1014.87 1014.80 1015.01 1015.27 1015.76 1015.99 1016.23 1016.45 1016.65 1016.57 1016.58 1016.59 1016.64 1016.71 1017.06 1017.62 1017.91 1018.18 1018.66 1019.21 1019.98 1020.57 1020.99
1018.91 1019.03 1019.09 1019.11 1019.00 1018.85 1018.74 1018.54 1018.35 1018.30 1017.93 1017.67 1017.32 1016.71 1016.53 1016.25 1015.06 1014.89 1014.91 1014.92 1015.00 1015.02 1015.06 1015.02 1015.12 1015.29 1015.82 1016.27 1016.54 1016.72 1016.77 1016.81 1016.90 1016.97 1016.99 1017.20 1017.52 1017.92 1018.00 1018.63 1019.32 1019.77 1020.26 1020.75 1021.04
1018.48 1018.79 1018.90 1018.94 1019.02 1018.85 1018.75 1018.58 1018.33 1018.23 1018.02 1017.72 1017.47 1017.31 1016.92 1015.82 1015.29 1015.03 1015.03 1015.17 1015.23 1015.20 1015.31 1015.33 1015.30 1015.51 1016.07 1016.68 1017.00 1017.12 1017.32 1017.32 1017.06 1017.21 1017.37 1017.54 1018.19 1017.96 1018.18 1019.10 1019.87 1020.42 1020.68 1021.00 1021.12
1018.20 1018.48 1018.71 1018.78 1018.87 1018.91 1018.77 1018.56 1018.31 1018.03 1017.89 1017.68 1017.47 1017.38 1016.43 1015.37 1015.27 1015.17 1015.26 1015.40 1015.35 1015.31 1015.44 1015.55 1015.47 1015.99 1016.61 1017.15 1017.71 1017.97 1018.19 1018.29 1017.57 1017.63 1017.69 1018.06 1018.00 1017.68 1018.25 1019.32 1020.10 1020.64 1020.97 1021.08 1021.06
1018.06 1018.15 1018.41 1018.53 1018.59 1018.71 1018.62 1018.42 1018.19 1017.92 1017.62 1017.54 1017.57 1017.47 1016.35 1015.34 1015.42 1015.35 1015.39 1015.68 1015.73 1015.73 1015.77 1015.79 1016.04 1017.29 1017.58 1018.27 1019.11 1019.27 1019.15 1019.10 1018.36 1017.98 1018.19 1018.55 1018.41 1018.12 1018.81 1019.66 1020.17 1020.32 1020.67 1020.80 1020.92
1017.72 1018.06 1018.28 1018.23 1018.40 1018.47 1018.43 1018.13 1017.96 1017.87 1017.50 1017.53 1017.69 1017.89 1016.32 1015.78 1015.57 1015.55 1015.64 1015.88 1016.15 1016.27 1016.44 1016.79 1017.67 1018.39 1018.97 1019.15 1019.57 1019.49 1019.64 1019.32 1018.97 1018.49 1018.69 1018.90 1018.61 1018.44 1019.00 1019.63 1019.47 1020.00 1020.22 1020.41 1020.40
1017.37 1017.72 1018.14 1018.44 1017.94 1018.31 1018.47 1018.10 1018.38 1018.29 1017.70 1017.09 1017.08 1016.68 1016.28 1016.09 1015.79 1015.85 1015.91 1016.11 1016.48 1016.98 1017.53 1017.96 1018.60 1018.68 1018.33 1018.58 1018.65 1019.00 1019.30 1019.16 1018.75 1018.30 1018.71 1018.67 1018.42 1018.06 1018.27 1018.98 1019.22 1019.34 1019.30 1019.34 1019.23
1017.19 1017.41 1017.86 1018.19 1018.04 1018.27 1018.72 1018.47 1017.72 1018.06 1017.35 1016.44 1016.69 1016.62 1016.16 1016.01 1016.28 1016.15 1016.05 1016.55 1016.98 1017.61 1018.17 1018.88 1018.53 1017.89 1018.29 1018.78 1018.94 1019.09 1019.38 1019.32 1018.92 1018.56 1018.98 1018.59 1018.27 1017.54 1017.73 1017.48 1017.27 1017.41 1017.61 1017.62 1018.16
1017.30 1017.16 1017.33 1017.73 1018.13 1018.59 1018.61 1018.14 1017.76 1017.71 1017.81 1016.21 1015.72 1015.58 1015.54 1016.00 1015.88 1015.85 1016.22 1016.68 1017.17 1018.00 1018.33 1018.35 1017.65 1017.50 1018.19 1018.72 1019.20 1019.22 1019.26 1019.29 1019.25 1019.02 1019.04 1019.02 1018.13 1017.19 1016.07 1016.07 1015.97 1015.80 1015.62 1015.96 1016.27
1017.27 1017.11 1017.08 1017.70 1018.82 1018.43 1018.04 1017.42 1017.39 1017.83 1017.85 1015.95 1015.28 1014.13 1014.54 1015.08 1015.56 1015.02 1015.56 1016.19 1017.19 1017.39 1018.27 1018.23 1017.37 1017.69 1018.06 1018.30 1018.53 1018.80 1018.42 1018.80 1019.40 1019.96 1019.87 1019.25 1017.77 1016.55 1015.86 1015.45 1015.09 1014.40 1014.59 1014.24 1014.80
1017.48 1017.33 1017.07 1017.27 1017.37 1017.77 1017.12 1016.97 1017.24 1017.70 1017.72 1014.92 1014.53 1013.98 1014.32 1014.68 1014.76 1015.43 1015.41 1015.77 1016.38 1017.06 1017.76 1016.65 1016.95 1017.34 1017.59 1017.22 1017.82 1017.99 1018.25 1018.95 1019.58 1020.28 1020.43 1019.56 1019.45 1015.50 1015.41 1014.97 1013.98 1013.09 1012.75 1012.86 1013.55
1017.74 1017.60 1017.41 1017.38 1017.44 1017.28 1016.84 1016.96 1017.67 1019.11 1017.09 1014.78 1014.35 1014.33 1014.85 1015.02 1015.45 1015.81 1015.74 1015.61 1016.02 1016.76 1016.91 1016.55 1016.37 1016.48 1016.37 1016.90 1017.19 1017.98 1018.74 1019.64 1020.54 1021.08 1020.76 1018.45 1018.89 1014.72 1014.47 1013.16 1012.53 1011.85 1011.52 1012.07 1013.05
1017.81 1017.66 1017.62 1016.89 1016.98 1017.20 1017.22 1017.48 1018.25 1018.35 1016.82 1015.09 1014.80 1014.71 1015.01 1015.62 1016.08 1015.97 1016.06 1015.94 1015.82 1016.76 1016.44 1016.63 1016.16 1015.89 1016.03 1016.85 1017.56 1017.85 1019.12 1020.64 1021.49 1021.76 1019.57 1018.07 1018.07 1013.40 1013.05 1012.14 1011.53 1011.30 1011.12 1012.02 1012.95
1017.72 1017.55 1017.19 1016.86 1016.66 1016.89 1017.61 1017.92 1017.45 1016.10 1015.70 1014.97 1015.08 1014.97 1015.28 1015.50 1016.15 1016.45 1016.51 1016.38 1015.67 1015.63 1015.87 1016.12 1015.94 1015.34 1015.24 1015.25 1016.20 1017.50 1018.15 1019.28 1020.21 1021.27 1019.80 1018.75 1016.52 1013.07 1011.56 1010.82 1010.91 1011.13 1011.29 1012.21 1013.25
1017.54 1017.35 1016.96 1016.28 1016.55 1016.57 1016.95 1016.12 1014.95 1015.56 1014.80 1014.53 1015.10 1015.22 1015.65 1015.46 1015.87 1016.65 1016.78 1015.97 1014.89 1014.88 1015.03 1015.17 1015.09 1014.50 1014.62 1014.72 1015.25 1016.97 1017.56 1017.55 1019.21 1020.99 1020.66 1017.05 1014.55 1012.67 1011.54 1010.91 1010.80 1010.70 1011.58 1012.33 1013.13
1017.67 1017.43 1016.28 1015.75 1016.11 1016.45 1015.79 1014.28 1014.32 1013.49 1013.54 1013.51 1013.84 1014.22 1014.95 1015.09 1015.83 1016.37 1016.19 1014.55 1014.35 1013.81 1014.00 1014.16 1014.87 1014.89 1014.95 1015.01 1015.44 1015.52 1016.18 1017.84 1019.10 1020.49 1019.50 1016.37 1014.59 1012.11 1011.20 1010.70 1010.27 1010.78 1010.86 1012.18 1013.09
1017.85 1017.18 1015.25 1014.94 1016.02 1016.38 1014.57 1013.95 1013.77 1013.17 1012.93 1012.97 1012.91 1013.31 1013.88 1014.22 1014.46 1015.31 1015.00 1013.74 1013.50 1013.31 1013.43 1014.07 1014.70 1015.71 1015.53 1014.91 1015.03 1016.00 1016.03 1016.84 1017.78 1018.38 1017.85 1016.36 1011.72 1009.92 1009.48 1009.68 1009.81 1009.90 1010.37 1011.40 1012.49
1017.55 1016.67 1014.97 1014.90 1015.87 1015.12 1014.28 1013.32 1012.53 1012.62 1012.72 1012.40 1012.13 1012.24 1012.78 1013.16 1013.64 1014.19 1013.59 1012.85 1012.44 1012.88 1013.51 1013.52 1014.15 1015.00 1014.83 1014.62 1014.60 1014.57 1014.71 1015.68 1016.89 1017.51 1016.98 1015.49 1008.84 1008.42 1008.36 1008.72 1009.42 1009.66 1010.09 1010.98 1012.00
1017.28 1016.32 1014.88 1015.02 1014.68 1014.39 1013.46 1013.09 1013.08 1012.70 1011.97 1012.10 1012.38 1011.77 1012.00 1012.32 1013.04 1012.91 1012.68 1012.09 1012.15 1012.61 1012.68 1012.90 1013.69 1014.72 1014.92 1015.31 1015.12 1014.90 1014.88 1014.86 1015.50 1016.16 1014.59 1014.36 1008.01 1008.86 1008.77 1009.03 1009.18 1009.43 1010.07 1010.92 1011.79
1017.40 1016.41 1015.54 1015.28 1014.15 1013.87 1013.60 1012.74 1012.68 1011.89 1011.99 1011.98 1011.65 1011.89 1011.73 1011.44 1011.81 1011.93 1011.93 1011.76 1011.29 1011.64 1011.78 1012.46 1013.22 1013.24 1012.76 1013.05 1013.15 1014.19 1013.97 1014.14 1014.35 1014.77 1011.06 1011.19 1007.77 1008.44 1008.94 1008.96 1009.12 1009.52 1009.86 1010.81 1011.52
1016.67 1015.78 1015.03 1014.87 1014.30 1013.71 1013.34 1012.56 1012.21 1011.90 1011.44 1011.46 1011.35 1011.24 1010.90 1011.16 1011.52 1011.28 1011.47 1011.69 1011.47 1011.27 1011.85 1012.61 1013.33 1013.08 1012.10 1012.44 1012.70 1012.57 1012.73 1013.00 1012.86 1010.22 1011.66 1006.77 1008.97 1006.14 1007.74 1008.29 1008.39 1008.62 1009.37 1010.39 1011.05
1015.99 1015.84 1015.04 1014.64 1014.38 1014.01 1013.51 1012.40 1012.15 1011.93 1011.51 1010.96 1011.01 1010.68 1010.59 1010.21 1010.58 1010.25 1010.90 1011.04 1011.11 1011.22 1011.51 1011.98 1012.52 1013.06 1011.97 1011.62 1012.34 1012.45 1011.89 1010.69 1010.12 1009.83 1010.10 1007.69 1007.36 1006.12 1006.52 1007.12 1007.92 1008.20 1008.80 1009.62 1010.18
1015.57 1015.00 1014.98 1014.32 1014.38 1014.24 1012.81 1012.05 1011.63 1011.59 1011.31 1011.56 1011.02 1010.92 1010.43 1010.28 1010.41 1009.75 1009.83 1010.02 1009.77 1010.49 1010.90 1011.39 1012.09 1012.49 1011.37 1010.97 1011.80 1011.46 1008.12 1008.60 1009.63 1008.52 1008.20 1007.78 1003.04 1006.17 1005.99 1006.34 1006.34 1006.81 1007.91 1008.58 1008.82
Wind_Speed
5 4 5 6 6 6 7 9 10 11 12 13 14 14 13 14 14 1 1 1 3 9 5 4 3 4 4 4 4 3 6 3 7 7 4 5 4 3 2 6 2 2 4 3 10
3 4 4 5 6 6 7 8 10 12 13 13 15 14 14 13 3 0 1 3 5 6 2 3 2 4 4 3 4 6 5 9 6 5 4 4 4 8 5 4 1 1 2 5 8
1 2 3 5 6 7 7 8 9 11 13 14 15 15 15 7 1 2 1 2 3 4 2 0 1 2 3 3 2 2 5 5 3 3 4 6 2 2 8 4 8 10 10 7 5
1 2 3 4 5 6 8 9 9 11 14 15 16 16 17 2 3 1 1 2 4 3 2 2 3 3 3 3 1 4 1 3 2 1 4 5 5 4 6 5 3 7 9 7 10
2 3 3 4 5 6 8 10 11 12 13 15 16 18 4 2 3 1 2 2 3 3 2 2 3 3 4 3 2 2 2 1 2 1 1 2 3 5 7 0 2 8 8 9 8
4 4 4 5 5 7 8 9 10 12 13 14 14 16 2 3 1 2 3 2 2 2 2 3 3 2 4 2 2 2 2 2 3 3 2 4 2 3 3 4 6 9 10 8 9
6 5 5 4 6 6 7 8 9 10 12 13 13 3 2 8 3 2 2 1 2 1 2 2 1 3 3 3 0 1 3 5 4 4 3 4 5 11 4 6 8 8 8 8 9
8 7 6 5 4 7 7 8 9 8 10 10 11 1 6 3 1 1 2 2 2 4 3 2 3 5 4 2 7 3 5 3 2 5 1 5 9 7 8 10 11 10 8 8 10
8 8 8 6 5 6 8 10 10 9 9 7 3 3 8 3 1 2 2 2 2 3 5 3 5 4 5 6 5 6 3 4 8 7 3 4 6 2 3 7 10 10 10 10 8
9 8 9 7 5 6 9 10 8 7 1 2 1 3 2 3 1 2 2 4 3 3 4 6 6 4 4 4 6 6 4 4 5 3 3 4 12 10 3 9 14 8 9 10 11
10 10 9 9 5 3 6 3 4 2 2 8 4 3 0 2 1 1 2 4 3 7 5 3 4 9 14 9 3 5 4 5 4 3 4 8 11 13 8 7 10 10 12 14 18
9 11 11 9 4 1 1 2 2 2 7 8 6 6 4 3 1 4 5 5 4 5 5 4 8 10 5 4 4 2 3 6 6 4 6 7 13 12 5 9 13 16 16 17 13
9 11 11 7 3 2 2 4 1 1 3 7 7 7 7 8 8 9 10 5 5 6 8 9 6 5 8 5 6 6 7 6 8 3 3 5 9 9 11 7 8 13 17 13 20
12 10 9 9 3 4 4 5 5 2 3 8 6 8 6 9 7 6 8 7 3 13 7 7 4 5 5 6 9 7 9 7 5 2 5 3 9 5 6 11 10 17 14 21 17
11 12 6 16 5 4 3 6 6 2 5 3 4 1 1 10 5 3 2 3 9 9 8 10 8 7 7 8 9 8 5 7 3 3 3 5 4 4 1 8 15 16 17 18 12
9 9 10 8 1 3 4 5 2 5 11 4 2 3 6 0 3 3 4 2 4 5 3 5 2 7 7 2 7 7 6 6 5 3 4 9 9 6 7 10 7 15 18 10 10
9 9 6 2 3 5 2 5 5 7 3 5 5 6 4 4 2 3 7 9 11 7 12 2 5 3 4 6 3 4 7 3 5 1 12 3 6 18 6 10 13 15 13 5 5
11 11 5 4 4 12 4 2 4 7 8 3 1 3 7 7 3 5 6 9 10 1 3 10 10 12 8 10 9 8 10 9 9 6 7 1 9 9 11 11 9 10 8 3 6
10 3 4 4 6 9 6 11 10 9 6 8 2 3 5 3 6 5 5 6 9 14 12 7 8 1 2 4 11 6 9 5 2 2 2 7 9 8 11 13 10 14 7 6 9
2 3 4 5 9 7 9 15 8 8 6 6 13 10 10 7 8 9 9 6 6 14 3 5 4 0 1 3 2 7 8 3 1 3 6 6 7 9 7 11 16 11 11 7 7
2 3 5 8 8 6 14 7 9 5 5 9 15 10 9 9 10 7 6 3 6 6 19 3 4 2 3 8 12 4 6 3 5 6 6 3 10 10 14 11 10 12 6 8 9
3 5 3 9 8 5 14 15 3 8 9 6 3 10 11 10 8 8 13 11 7 6 13 10 4 6 10 2 2 4 4 7 6 6 5 2 18 4 8 8 8 10 8 3 6
3 6 3 6 9 13 10 15 18 6 10 9 8 8 8 8 6 7 7 8 7 11 12 9 5 2 7 3 4 4 5 7 5 4 14 6 17 3 0 4 7 9 4 5 6
1 3 5 4 8 11 16 18 16 12 23 12 8 13 8 12 12 7 10 5 12 12 9 5 5 10 17 3 7 7 9 11 16 9 13 19 23 4 6 8 7 9 8 6 7
4 5 4 4 13 13 11 6 21 14 13 20 15 22 16 13 18 16 11 2 5 7 5 11 9 6 16 10 5 8 9 17 21 32 12 34 20 25 15 10 11 8 6 6 8
4 4 2 3 4 9 19 18 16 9 9 19 14 11 18 13 11 9 17 14 16 5 11 10 7 11 27 22 10 14 10 23 28 29 24 32 30 4 5 4 4 12 10 10 9
2 3 1 6 7 7 13 18 25 23 12 17 13 7 19 19 19 19 9 8 7 16 9 12 7 7 17 8 11 8 33 20 12 21 23 24 41 7 17 16 19 15 10 11 14
Wind_Direction
84 51 50 51 47 36 24 12 2 355 350 349 339 338 334 331 316 206 215 271 304 322 314 304 20 13 46 60 51 112 67 151 193 159 232 170 142 146 67 111 59 328 159 278 128
88 58 32 31 30 30 19 9 359 352 350 343 341 338 331 334 299 281 17 310 315 321 4 56 33 8 44 54 27 79 102 200 188 196 222 181 168 159 137 126 358 356 26 90 127
75 68 39 24 14 7 10 5 355 352 346 343 341 337 330 329 284 256 324 321 316 5 352 101 101 74 66 46 20 155 167 193 216 234 201 167 168 195 128 228 200 193 179 166 160
338 343 1 5 12 1 359 354 355 348 347 344 342 334 327 233 185 326 326 341 327 335 305 64 50 60 83 101 1 95 163 160 225 197 156 166 129 183 196 213 316 198 162 160 174
305 319 333 341 345 353 354 351 349 348 344 345 341 334 8 329 263 39 43 6 336 350 63 94 68 109 131 144 97 99 193 158 213 261 173 123 202 214 236 167 27 135 151 178 181
257 287 314 322 331 339 344 347 346 341 342 343 344 331 15 282 343 92 51 30 22 23 33 43 147 154 104 97 112 137 139 263 195 233 236 182 227 138 254 124 117 154 179 187 187
207 243 263 306 317 323 329 330 334 334 333 336 343 349 8 237 346 34 57 48 348 62 101 23 79 76 107 93 142 58 330 340 225 201 232 140 289 239 180 160 170 193 198 202 212
205 214 235 252 288 308 311 310 313 317 318 328 328 350 249 331 321 11 53 18 33 30 85 356 56 100 72 115 20 54 48 12 318 143 283 129 261 264 178 164 204 210 218 220 226
226 215 226 234 255 294 304 301 297 300 299 310 25 51 270 331 87 247 115 153 62 24 29 52 59 80 40 92 19 5 237 209 314 201 128 173 265 270 145 191 222 217 215 222 236
228 236 230 225 255 286 296 288 288 317 12 115 53 19 265 244 218 134 53 111 102 82 35 47 50 76 40 99 216 202 214 236 236 208 172 228 263 269 203 201 231 230 232 231 229
234 226 233 241 207 293 336 349 15 322 62 198 198 233 252 316 0 50 126 95 80 60 155 11 114 206 205 200 147 146 185 214 238 227 172 226 253 260 219 218 239 237 230 231 230
257 220 217 219 206 139 20 241 163 259 295 232 231 264 232 170 105 244 131 139 146 169 115 46 235 228 152 181 193 164 210 252 280 247 182 263 255 258 201 229 215 223 230 230 229
352 245 210 193 155 134 210 221 40 10 264 277 194 190 192 149 210 207 151 144 147 140 190 175 218 144 157 162 176 226 198 218 225 349 243 329 279 241 250 226 242 237 235 234 222
356 346 203 138 148 167 222 219 202 54 299 265 223 255 151 138 248 172 178 144 182 190 172 237 240 149 171 197 159 234 204 190 217 121 243 148 283 263 247 254 232 248 230 237 227
355 350 208 162 134 208 234 162 145 55 272 243 186 41 178 173 137 220 222 86 175 177 143 231 181 175 191 200 170 225 136 170 153 164 19 207 265 252 38 261 255 251 245 242 214
344 348 339 183 272 255 65 101 102 92 239 314 127 144 122 349 49 72 147 64 156 141 278 233 178 172 201 98 155 145 80 57 58 103 256 219 186 214 196 221 241 248 252 235 215
325 326 330 208 198 176 124 72 103 184 323 233 186 170 143 155 108 135 164 186 175 150 224 141 221 191 150 100 69 124 94 313 327 13 241 45 176 254 282 253 229 252 258 255 210
310 316 264 230 180 153 123 210 244 189 210 47 36 103 171 151 191 166 137 209 244 158 113 195 254 168 188 190 165 189 164 172 208 203 268 83 234 250 228 255 262 260 268 233 169
321 297 255 213 176 183 169 224 198 198 209 156 87 152 225 167 153 135 215 240 204 190 196 172 256 244 125 146 154 191 209 200 29 109 3 225 281 286 256 267 273 256 249 214 219
324 306 240 189 166 227 221 217 223 181 167 168 208 167 203 187 160 180 173 217 229 200 210 223 276 7 203 114 37 169 159 89 3 228 251 267 262 227 247 242 249 267 257 209 226
268 262 255 167 153 214 245 200 224 227 191 183 215 195 207 179 185 193 220 249 210 210 192 162 179 269 128 209 170 149 202 187 142 164 191 285 252 216 216 206 220 243 254 228 213
255 241 286 146 192 209 226 222 233 198 213 263 243 198 197 177 188 190 213 201 176 149 180 209 189 203 201 253 210 208 236 158 144 230 247 179 259 178 205 205 203 252 259 235 196
237 253 298 196 214 219 231 233 237 257 206 196 246 218 195 181 214 211 209 210 167 166 174 171 219 334 330 22 353 212 194 196 109 75 231 153 263 18 143 269 244 235 246 211 184
187 249 219 208 269 226 226 240 239 220 234 235 247 215 206 215 210 202 223 250 185 198 173 173 191 199 232 196 147 192 194 199 202 219 231 235 254 261 271 252 268 253 254 224 186
189 228 211 207 232 239 244 247 234 238 225 203 224 242 211 232 224 230 222 255 190 222 192 145 235 244 259 258 206 195 196 197 209 228 199 252 244 249 232 221 235 237 223 191 203
186 176 239 242 306 240 240 242 249 263 231 224 235 233 231 231 222 229 222 206 225 190 175 164 237 227 258 248 237 245 219 217 215 230 235 257 263 105 257 234 247 241 231 220 216
228 293 33 230 228 242 244 236 244 252 235 246 269 286 242 236 249 239 230 236 214 214 184 156 188 182 253 240 223 249 237 228 216 224 216 237 248 218 260 240 244 247 216 222 224